Location: downtown San Diego
(32.7310°N, 117.1990°W)
Time: 18:00:13
(UTC-07:00)

MetOp-A - Pass Details

Date: 19 May 2017
Orbit: 820 x 821 km, 98.7° (Epoch: 26 May)

Event Time Altitude Azimuth Distance (km) Brightness Sun altitude
Exits shadow 21:50:38 51° 158° (SSE) 1,027 4.2 -22.7°
Maximum altitude 21:52:03 84° 76° (ENE) 829 4.0 -22.9°
Drops below altitude 10° 21:57:25 10° 349° (NNW) 2,420 7.3 -23.7°
Sets 21:59:46 0° 349° (NNW) 3,356 8.2 -24.1°
